This is the latest recevied weather packets stored in our database for station/object N2OCK. If no packets are shown the sender has not sent any weather packets the latest 10 day(s).
| Time | Temp. | Humidity | Pressure | Rain* | Wind** | Luminosity | Snow |
|---|---|---|---|---|---|---|---|
| 1777983334 | 15.56° C | 82% | 1011.7 hPa | 0 mm | - | 249 W/m² | - |
| 1777983032 | 15.56° C | 83% | 1011.6 hPa | 0 mm | - | 132 W/m² | - |
| 1777982728 | 15° C | 84% | 1011.7 hPa | 0 mm | - | 141 W/m² | - |
| 1777982423 | 15° C | 85% | 1011.7 hPa | 0 mm | - | 126 W/m² | - |
| 1777982118 | 14.44° C | 86% | 1011.7 hPa | 0 mm | - | 134 W/m² | - |
| 1777981816 | 14.44° C | 87% | 1011.7 hPa | 0 mm | - | 102 W/m² | - |
| 1777981513 | 14.44° C | 87% | 1011.9 hPa | 0 mm | - | 81 W/m² | - |
| 1777981209 | 14.44° C | 87% | 1012.1 hPa | 0 mm | - | 97 W/m² | - |
| 1777980906 | 14.44° C | 87% | 1011.9 hPa | 0 mm | - | 89 W/m² | - |
| 1777980601 | 14.44° C | 87% | 1012 hPa | 0 mm | - | 94 W/m² | - |
| 1777980299 | 13.89° C | 89% | 1011.9 hPa | 0 mm | - | 116 W/m² | - |
| 1777979996 | 13.33° C | 91% | 1011.8 hPa | 0 mm | - | 72 W/m² | - |
| 1777979696 | 12.78° C | 92% | 1011.7 hPa | 0 mm | - | 57 W/m² | - |
| 1777979392 | 12.78° C | 93% | 1012 hPa | 0 mm | - | 52 W/m² | - |
| 1777979089 | 12.78° C | 93% | 1011.6 hPa | 0 mm | - | 46 W/m² | - |
| 1777978786 | 12.78° C | 93% | 1011.7 hPa | 0 mm | - | 38 W/m² | - |
| 1777978482 | 12.22° C | 94% | 1011.8 hPa | 0 mm | - | 39 W/m² | - |
| 1777978178 | 12.22° C | 94% | 1011.6 hPa | 0 mm | - | 44 W/m² | - |
| 1777977876 | 12.22° C | 95% | 1011.3 hPa | 0 mm | - | 49 W/m² | - |
| 1777977572 | 11.67° C | 96% | 1011.6 hPa | 0 mm | - | 39 W/m² | - |
| 1777977265 | 11.67° C | 96% | 1011.4 hPa | 0 mm | - | 33 W/m² | - |
| 1777976961 | 11.67° C | 97% | 1011.3 hPa | 0 mm | - | 34 W/m² | - |
| 1777976658 | 11.67° C | 97% | 1011.1 hPa | 0 mm | - | 31 W/m² | - |
| 1777976355 | 11.11° C | 97% | 1010.9 hPa | 0 mm | - | 30 W/m² | - |
| 1777976054 | 11.11° C | 97% | 1011.1 hPa | 0 mm | - | 22 W/m² | - |
* Rain latest hour (hover to see other rain measurements)
** Current wind speed in m/s (hover to see current wind gust speed)